Weather History for Moose Lake, MN

Change the Weather History Date:

Wednesday, February 20, 2013

  Actual Average Record
Temperature  
Mean Temperature 6 °F -  
Max Temperature 19 °F 31 °F 50 °F (2003)
Min Temperature -7 °F 5 °F -26 °F (1956)
Degree Days  
Heating Degree Days 59    
Moisture  
Dew Point -14 °F    
Average Humidity 42    
Maximum Humidity 65    
Minimum Humidity 23    
Precipitation  
Precipitation 0.00 in - - ()
Sea Level Pressure  
Sea Level Pressure 30.39 in    
Wind  
Wind Speed 0 mph (North)    
Max Wind Speed 0 mph    
Max Gust Speed -    
Visibility 10 miles    
Events      
Averages and records for this station are not official NWS values.
T = Trace of Precipitation, MM = Missing Value Source: NWS Daily Summary

Daily Weather History Graph

Daily Weather History Graph

Search for Another Location

Airport:

Trip Planner

Search our weather history database for the weather conditions in past years. The results will help you decide how hot, cold, wet, or windy it might be!

Date:

Astronomy

Feb. 20, 2013 Rise Set
Actual Time 7:05 AM CST 5:44 PM CST
Civil Twilight 6:35 AM CST 6:15 PM CST
Nautical Twilight 6:00 AM CST 6:50 PM CST
Astronomical Twilight 5:25 AM CST 7:25 PM CST
Moon 12:55 PM CST 3:37 AM CST
Length of Visible Light 11h 40m
Length of Day
10h 38m
Waxing Gibbous, 76% of the Moon is Illuminated
Feb 20
Waxing Gibbous
Feb 25
Full
Mar 4
Last Quarter
Mar 11
New
Mar 19
First Quarter

Hourly Weather History & Observations

Time (CST) Temp. Dew Point Humidity Pressure Visibility Wind Dir Wind Speed Gust Speed Precip Events Conditions
12:12 AM 1.4 °F -13.0 °F 51% 30.31 in 10.0 mi Calm Calm - N/A   Clear
12:32 AM -0.4 °F -13.0 °F 55% 30.32 in 10.0 mi Calm Calm - N/A   Clear
12:52 AM -0.4 °F -13.0 °F 55% 30.32 in 10.0 mi Calm Calm - N/A   Clear
1:12 AM -0.4 °F -13.0 °F 55% 30.32 in 10.0 mi Calm Calm - N/A   Clear
1:32 AM -0.4 °F -13.0 °F 55% 30.34 in 10.0 mi Calm Calm - N/A   Clear
1:52 AM -0.4 °F -13.0 °F 55% 30.33 in 10.0 mi Calm Calm - N/A   Clear
2:12 AM -0.4 °F -13.0 °F 55% 30.34 in 10.0 mi Calm Calm - N/A   Clear
2:52 AM -2.2 °F -13.0 °F 60% 30.35 in 10.0 mi Calm Calm - N/A   Clear
3:32 AM -4.0 °F -13.0 °F 65% 30.36 in 10.0 mi Calm Calm - N/A   Clear
3:52 AM -4.0 °F -14.8 °F 60% 30.36 in 10.0 mi Calm Calm - N/A   Clear
4:12 AM -4.0 °F -14.8 °F 60% 30.36 in 10.0 mi Calm Calm - N/A   Clear
4:32 AM -4.0 °F -14.8 °F 60% 30.37 in 10.0 mi Calm Calm - N/A   Clear
4:52 AM -4.0 °F -14.8 °F 60% 30.38 in 10.0 mi Calm Calm - N/A   Clear
5:12 AM -5.8 °F -14.8 °F 65% 30.38 in 10.0 mi Calm Calm - N/A   Clear
5:32 AM -5.8 °F -14.8 °F 65% 30.39 in 10.0 mi Calm Calm - N/A   Clear
5:52 AM -5.8 °F -14.8 °F 65% 30.40 in 10.0 mi Calm Calm - N/A   Clear
6:12 AM -5.8 °F -14.8 °F 65% 30.40 in 10.0 mi Calm Calm - N/A   Clear
6:32 AM -5.8 °F -16.6 °F 60% 30.40 in 10.0 mi Calm Calm - N/A   Clear
6:52 AM -5.8 °F -16.6 °F 60% 30.40 in 10.0 mi Calm Calm - N/A   Clear
7:12 AM -5.8 °F -16.6 °F 60% 30.40 in 10.0 mi Calm Calm - N/A   Clear
7:32 AM -7.6 °F -16.6 °F 65% 30.41 in 10.0 mi Calm Calm - N/A   Clear
7:52 AM -5.8 °F -16.6 °F 60% 30.42 in 10.0 mi Calm Calm - N/A   Clear
8:12 AM -4.0 °F -16.6 °F 55% 30.42 in 10.0 mi Calm Calm - N/A   Clear
8:32 AM -4.0 °F -16.6 °F 55% 30.43 in 10.0 mi Calm Calm - N/A   Clear
8:52 AM -2.2 °F -14.8 °F 55% 30.43 in 10.0 mi Calm Calm - N/A   Clear
9:12 AM -0.4 °F -14.8 °F 51% 30.42 in 10.0 mi Calm Calm - N/A   Clear
9:32 AM 1.4 °F -14.8 °F 47% 30.42 in 10.0 mi Calm Calm - N/A   Clear
9:52 AM 3.2 °F -14.8 °F 43% 30.42 in 10.0 mi Calm Calm - N/A   Clear
10:12 AM 3.2 °F -14.8 °F 43% 30.42 in 10.0 mi Calm Calm - N/A   Clear
10:32 AM 5.0 °F -14.8 °F 40% 30.41 in 10.0 mi Calm Calm - N/A   Clear
10:52 AM 5.0 °F -14.8 °F 40% 30.41 in 10.0 mi Calm Calm - N/A   Clear
11:12 AM 8.6 °F -14.8 °F 34% 30.40 in 10.0 mi Calm Calm - N/A   Clear
11:32 AM 8.6 °F -13.0 °F 37% 30.41 in 10.0 mi Calm Calm - N/A   Clear
11:52 AM 10.4 °F -13.0 °F 34% 30.41 in 10.0 mi Calm Calm - N/A   Clear
12:12 PM 12.2 °F -13.0 °F 32% 30.40 in 10.0 mi Calm Calm - N/A   Clear
12:32 PM 12.2 °F -13.0 °F 32% 30.40 in 10.0 mi Calm Calm - N/A   Clear
12:52 PM 14.0 °F -13.0 °F 29% 30.40 in 10.0 mi Calm Calm - N/A   Clear
1:12 PM 15.8 °F -11.2 °F 30% 30.40 in 10.0 mi Calm Calm - N/A   Clear
1:32 PM 15.8 °F -11.2 °F 30% 30.39 in 10.0 mi Calm Calm - N/A   Clear
1:52 PM 17.6 °F -9.4 °F 30% 30.39 in 10.0 mi Calm Calm - N/A   Clear
2:12 PM 17.6 °F -11.2 °F 27% 30.40 in 10.0 mi Calm Calm - N/A   Clear
2:32 PM 19.4 °F -11.2 °F 25% 30.40 in 10.0 mi Calm Calm - N/A   Clear
2:52 PM 19.4 °F -11.2 °F 25% 30.41 in 10.0 mi Calm Calm - N/A   Clear
3:12 PM 19.4 °F -11.2 °F 25% 30.41 in 10.0 mi Calm Calm - N/A   Clear
3:32 PM 19.4 °F -11.2 °F 25% 30.41 in 10.0 mi Calm Calm - N/A   Clear
3:52 PM 19.4 °F -11.2 °F 25% 30.41 in 10.0 mi Calm Calm - N/A   Clear
4:12 PM 19.4 °F -13.0 °F 23% 30.41 in 10.0 mi Calm Calm - N/A   Clear
4:32 PM 19.4 °F -13.0 °F 23% 30.41 in 10.0 mi Calm Calm - N/A   Clear
4:52 PM 19.4 °F -11.2 °F 25% 30.41 in 10.0 mi Calm Calm - N/A   Clear
5:12 PM 19.4 °F -13.0 °F 23% 30.40 in 10.0 mi Calm Calm - N/A   Clear
5:32 PM 17.6 °F -13.0 °F 25% 30.41 in 10.0 mi Calm Calm - N/A   Clear
5:52 PM 15.8 °F -13.0 °F 27% 30.40 in 10.0 mi Calm Calm - N/A   Clear
6:12 PM 14.0 °F -14.8 °F 27% 30.40 in 10.0 mi Calm Calm - N/A   Clear
6:32 PM 14.0 °F -14.8 °F 27% 30.40 in 10.0 mi Calm Calm - N/A   Clear
6:52 PM 10.4 °F -13.0 °F 34% 30.40 in 10.0 mi Calm Calm - N/A   Clear
7:12 PM 8.6 °F -13.0 °F 37% 30.38 in 10.0 mi Calm Calm - N/A   Clear
7:32 PM 8.6 °F -14.8 °F 34% 30.38 in 10.0 mi Calm Calm - N/A   Clear
7:52 PM 8.6 °F -14.8 °F 34% 30.38 in 10.0 mi Calm Calm - N/A   Clear
8:12 PM 8.6 °F -14.8 °F 34% 30.38 in 10.0 mi Calm Calm - N/A   Clear
8:32 PM 10.4 °F -18.4 °F 26% 30.38 in 10.0 mi Calm Calm - N/A   Clear
8:52 PM 10.4 °F -18.4 °F 26% 30.37 in 10.0 mi Calm Calm - N/A   Clear
9:12 PM 8.6 °F -18.4 °F 28% 30.37 in 10.0 mi Calm Calm - N/A   Clear
9:32 PM 8.6 °F -18.4 °F 28% 30.36 in 10.0 mi Calm Calm - N/A   Clear
9:52 PM 8.6 °F -16.6 °F 31% 30.37 in 10.0 mi Calm Calm - N/A   Scattered Clouds
10:12 PM 5.0 °F -14.8 °F 40% 30.36 in 10.0 mi Calm Calm - N/A   Scattered Clouds
10:32 PM 5.0 °F -13.0 °F 43% 30.37 in 10.0 mi Calm Calm - N/A   Scattered Clouds
10:52 PM 3.2 °F -14.8 °F 43% 30.37 in 10.0 mi Calm Calm - N/A   Scattered Clouds
11:12 PM 5.0 °F -9.4 °F 52% 30.38 in 10.0 mi Calm Calm - N/A   Scattered Clouds
11:32 PM 1.4 °F -13.0 °F 51% 30.38 in 10.0 mi Calm Calm - N/A   Scattered Clouds
11:52 PM -0.4 °F -14.8 °F 51% 30.40 in 10.0 mi Calm Calm - N/A   Scattered Clouds